Flag for U.S.A. Weather past 2 weeks in Honolulu, Hawaii, U.S.A.

Now
78 °F

Light rain. Broken clouds.


Feels Like: 81 °F
Forecast: 73 / 83 °F
Wind: 7 mph from Northeast

Location: Honolulu International Airport

Current Time: Oct 22, 2014 at 3:56:52 PM

Latest Report: Oct 22, 2014 at 2:53 PM


Visibility: 8 mi

Pressure: 29.96 "Hg

Humidity: 93%

Dew point: 76 °F

Location of HonoluluLocation

Historic Weather in Honolulu — Graph

°F

Honolulu temperature yesterday

Maximum temperature yesterday: 86 °F (at 12:53 PM)
Minimum temperature yesterday: 75 °F (at 7:53 AM)
Average temperature yesterday: 80 °F

Past Weeks' High & Low Weather Summary

 TemperatureHumidityPressure
High91 °F (Oct 8, 12:53 PM)95% (Oct 19, 10:53 AM)30.05 "Hg (Oct 19, 10:53 AM)
Low74 °F (Oct 19, 4:53 AM)42% (Oct 11, 12:53 PM)29.86 "Hg (Oct 15, 2:53 PM)
Average81 °F69%29.96 "Hg
* Reported Oct 7 1:27 PM — Oct 22 1:53 PM, Honolulu, Weather by CustomWeather, © 2014

Note: Actual official high and low records may vary slightly from our data, if they occured in-between our weather recording intervals... More about our weather records

Advertising

Honolulu weather history for previous 24 hours

 ConditionsComfort  
Time TempWeatherWind HumidityBarometerVisibility
1:53 PM
Oct 22
81 °FBroken clouds.7 mph82%29.97 "Hg10 mi
12:53 PM80 °FBroken clouds.6 mph87%29.98 "Hg10 mi
11:53 AM77 °FLight rain. Broken clouds.No wind92%30.01 "Hg10 mi
10:53 AM80 °FLight rain. Broken clouds.8 mph79%30.03 "Hg7 mi
9:53 AM82 °FBroken clouds.3 mph74%30.03 "Hg10 mi
8:53 AM81 °FBroken clouds.3 mph77%30.02 "Hg10 mi
7:53 AM81 °FBroken clouds.No wind74%30.01 "Hg10 mi
6:53 AM77 °FScattered clouds.No wind88%29.98 "Hg10 mi
5:53 AM77 °FPassing clouds.5 mph85%29.97 "Hg10 mi
4:53 AM77 °FPassing clouds.No wind85%29.96 "Hg10 mi
3:53 AM77 °FPassing clouds.No wind88%29.96 "Hg10 mi
2:53 AM77 °FPassing clouds.3 mph88%29.97 "Hg10 mi
1:53 AM77 °FPassing clouds.3 mph88%29.98 "Hg10 mi
12:53 AM78 °FPassing clouds.No wind84%29.99 "Hg10 mi
11:53 PM
Oct 21
79 °FPassing clouds.5 mph82%30.00 "Hg10 mi
10:53 PM79 °FPassing clouds.5 mph82%30.00 "Hg10 mi
9:53 PM80 °FPartly cloudy.6 mph79%30.01 "Hg10 mi
8:53 PM79 °FPartly cloudy.3 mph82%30.00 "Hg10 mi
7:53 PM80 °FPartly cloudy.10 mph79%29.98 "Hg10 mi
6:53 PM81 °FPartly cloudy.10 mph72%29.96 "Hg10 mi
5:53 PM82 °FBroken clouds.14 mph70%29.95 "Hg10 mi
4:53 PM85 °FBroken clouds.12 mph65%29.93 "Hg10 mi
3:53 PM85 °FBroken clouds.7 mph65%29.93 "Hg10 mi
Weather by CustomWeather, © 2014

See weather overviewHow to use our weather pages